FW8254 Weather Reports


Display with metric or nautical units.
time (UTC)temp
F
wind
direction
speed
MPH
gust
MPH
rain 1hr
in
rain 24hr
in
rain mn
in
humidity
%
barometer
mb
20240625100353 73 45 0.0 1.0 0.00 0.00 0.00 66 1007.3
20240625095851 73 42 0.0 0.0 0.00 0.00 0.00 66 1006.9
20240625095350 73 42 0.0 0.0 0.00 0.00 0.00 66 1007.0
20240625094847 74 42 0.0 0.0 0.00 0.00 0.00 66 1006.9
20240625094344 74 42 0.0 0.0 0.00 0.00 0.00 65 1006.8
20240625093844 74 41 0.0 0.0 0.00 0.00 0.00 65 1006.8
20240625093342 74 58 0.0 0.0 0.00 0.00 0.00 66 1006.7
20240625092840 74 62 0.0 1.0 0.00 0.00 0.00 65 1006.9
20240625092340 74 70 0.0 0.0 0.00 0.00 0.00 66 1006.8
20240625091837 74 70 0.0 0.0 0.00 0.00 0.00 65 1006.8
20240625091335 74 70 0.0 0.0 0.00 0.00 0.00 66 1006.7
20240625090835 74 70 0.0 0.0 0.00 0.00 0.00 66 1006.6
20240625090334 74 70 0.0 0.0 0.00 0.00 0.00 66 1006.6
20240625085834 74 70 0.0 0.0 0.00 0.00 0.00 66 1006.6
20240625085331 74 70 0.0 0.0 0.00 0.00 0.00 66 1006.4
20240625084830 74 70 0.0 0.0 0.00 0.00 0.00 66 1006.5
20240625084329 74 71 0.0 0.0 0.00 0.00 0.00 66 1006.4
20240625083826 75 71 0.0 0.0 0.00 0.00 0.00 65 1006.6
20240625083325 75 71 0.0 0.0 0.00 0.00 0.00 65 1006.5
20240625082822 75 71 0.0 0.0 0.00 0.00 0.00 65 1006.3
20240625082322 75 71 0.0 0.0 0.00 0.00 0.00 64 1006.5
20240625081820 75 70 0.0 0.0 0.00 0.00 0.00 65 1006.3
20240625081316 75 70 0.0 0.0 0.00 0.00 0.00 65 1006.2
20240625080816 76 70 0.0 0.0 0.00 0.00 0.00 65 1006.3
20240625080315 76 70 0.0 0.0 0.00 0.00 0.00 66 1006.2
20240625075812 76 70 0.0 0.0 0.00 0.00 0.00 65 1006.3
20240625075312 76 70 0.0 0.0 0.00 0.00 0.00 64 1006.1
20240625074810 76 70 0.0 1.0 0.00 0.00 0.00 63 1006.5
20240625074309 77 71 0.0 0.0 0.00 0.00 0.00 63 1006.5
20240625073807 77 72 0.0 1.0 0.00 0.00 0.00 62 1006.3
20240625073306 77 71 0.0 1.0 0.00 0.00 0.00 62 1006.3
20240625072800 77 72 1.0 1.0 0.00 0.00 0.00 62 1006.2
20240625072259 77 71 0.0 0.0 0.00 0.00 0.00 62 1006.6
20240625071758 77 71 0.0 0.0 0.00 0.00 0.00 62 1006.6
20240625071256 77 71 0.0 0.0 0.00 0.00 0.00 61 1006.5
20240625070755 77 71 0.0 0.0 0.00 0.00 0.00 61 1006.5
20240625070253 78 71 0.0 0.0 0.00 0.00 0.00 60 1006.7
20240625065752 78 71 0.0 1.0 0.00 0.00 0.00 60 1006.4
20240625065252 78 71 0.0 0.0 0.00 0.00 0.00 60 1006.5
20240625064752 78 71 0.0 0.0 0.00 0.00 0.00 60 1006.3
20240625064250 79 71 0.0 0.0 0.00 0.00 0.00 59 1006.4
20240625063748 79 71 0.0 0.0 0.00 0.00 0.00 59 1006.3
20240625063247 79 71 0.0 0.0 0.00 0.00 0.00 59 1006.4
20240625062745 79 71 0.0 0.0 0.00 0.00 0.00 59 1006.6
20240625062245 79 71 0.0 0.0 0.00 0.00 0.00 58 1006.6
20240625061743 80 71 0.0 0.0 0.00 0.00 0.00 58 1006.4
20240625061240 80 71 0.0 0.0 0.00 0.00 0.00 58 1006.8
20240625060739 80 71 0.0 0.0 0.00 0.00 0.00 56 1006.6
20240625060239 80 71 0.0 0.0 0.00 0.00 0.00 57 1006.6
20240625055734 80 71 0.0 0.0 0.00 0.00 0.00 56 1006.5
20240625055232 81 71 0.0 0.0 0.00 0.00 0.00 55 1006.6
20240625054730 81 71 0.0 0.0 0.00 0.00 0.00 55 1006.4
20240625054228 81 71 0.0 0.0 0.00 0.00 0.00 55 1006.5
20240625053727 81 71 0.0 0.0 0.00 0.00 0.00 54 1006.6
20240625053226 81 71 0.0 0.0 0.00 0.00 0.00 54 1006.5
20240625052725 81 71 0.0 0.0 0.00 0.00 0.00 54 1006.4
20240625052224 82 71 0.0 0.0 0.00 0.00 0.00 54 1006.3
20240625051723 82 71 0.0 0.0 0.00 0.00 0.00 54 1006.4
20240625051220 82 71 0.0 0.0 0.00 0.00 0.00 52 1006.2
20240625050719 82 71 0.0 1.0 0.00 0.00 0.00 52 1006.3
20240625050217 82 71 0.0 0.0 0.00 0.00 0.00 53 1006.2
20240625045718 83 71 0.0 1.0 0.00 0.00 0.00 52 1006.5
20240625045215 83 71 0.0 1.0 0.00 0.00 0.00 51 1006.1
20240625044714 83 71 0.0 0.0 0.00 0.00 0.00 51 1006.1
20240625044212 83 71 0.0 0.0 0.00 0.00 0.00 51 1006.1
20240625043712 83 72 0.0 0.0 0.00 0.00 0.00 51 1006.0
20240625043211 83 72 0.0 1.0 0.00 0.00 0.00 51 1006.1
20240625042709 83 72 0.0 1.0 0.00 0.00 0.00 51 1006.0
20240625042209 83 72 0.0 1.0 0.00 0.00 0.00 50 1005.8
20240625041709 84 71 0.0 0.0 0.00 0.00 0.00 51 1005.9
20240625041207 84 72 0.0 1.0 0.00 0.00 0.00 51 1005.9
20240625040706 84 72 0.0 1.0 0.00 0.00 0.00 50 1005.6
20240625040205 84 72 0.0 0.0 0.00 0.00 0.00 50 1005.7
20240625035704 84 72 0.0 1.0 0.00 0.00 0.00 49 1005.6
20240625035159 84 72 0.0 1.0 0.00 0.00 0.00 49 1005.8
20240625034657 84 72 0.0 1.0 0.00 0.00 0.00 49 1005.4
20240625034154 84 72 0.0 2.0 0.00 0.00 0.00 50 1005.6
20240625033653 84 76 0.0 1.0 0.00 0.00 0.00 49 1005.5
20240625033153 84 76 0.0 0.0 0.00 0.00 0.00 49 1005.6
20240625032653 84 79 0.0 2.0 0.00 0.00 0.00 48 1005.3
20240625032152 84 13 0.0 0.0 0.00 0.00 0.00 49 1005.6
20240625031652 84 13 0.0 0.0 0.00 0.00 0.00 48 1005.8
20240625031152 84 13 0.0 0.0 0.00 0.00 0.00 48 1005.6
20240625030651 84 13 0.0 0.0 0.00 0.00 0.00 49 1005.6
20240625030148 84 13 0.0 0.0 0.00 0.00 0.00 50 1005.4
20240625025648 84 13 0.0 0.0 0.00 0.00 0.00 50 1005.3
20240625025148 83 13 0.0 0.0 0.00 0.00 0.00 51 1005.2
20240625024646 83 13 0.0 0.0 0.00 0.00 0.00 51 1005.3
20240625024144 83 13 0.0 0.0 0.00 0.00 0.00 52 1005.1
20240625023644 83 13 0.0 0.0 0.00 0.00 0.00 54 1004.9
20240625023143 84 13 0.0 0.0 0.00 0.00 0.00 54 1004.9
20240625022641 84 13 0.0 0.0 0.00 0.00 0.00 54 1004.7
20240625022140 83 13 0.0 0.0 0.00 0.00 0.00 54 1004.7
20240625021640 83 13 0.0 0.0 0.00 0.00 0.00 56 1004.7
20240625021139 84 13 0.0 0.0 0.00 0.00 0.00 58 1004.6
20240625020637 84 13 0.0 0.0 0.00 0.00 0.00 55 1004.3
20240625020136 84 13 0.0 0.0 0.00 0.00 0.00 56 1004.7
20240625015635 84 12 0.0 0.0 0.00 0.00 0.00 59 1004.4
20240625015134 85 10 0.0 0.0 0.00 0.00 0.00 59 1004.2
20240625014633 85 10 0.0 0.0 0.00 0.00 0.00 58 1004.0
20240625014131 85 10 0.0 0.0 0.00 0.00 0.00 64 1004.3
20240625013631 85 10 0.0 0.0 0.00 0.00 0.00 59 1004.2
20240625013130 86 10 0.0 0.0 0.00 0.00 0.00 60 1003.9
20240625012629 86 10 0.0 0.0 0.00 0.00 0.00 61 1004.0
20240625012129 86 10 0.0 0.0 0.00 0.00 0.00 59 1003.9
20240625011627 87 10 0.0 0.0 0.00 0.00 0.00 55 1003.9
20240625011127 87 10 0.0 0.0 0.00 0.00 0.00 53 1003.8
20240625010625 88 10 0.0 0.0 0.00 0.00 0.00 54 1003.6
20240625010123 88 10 0.0 0.0 0.00 0.00 0.00 50 1003.5
20240625005622 89 10 0.0 1.0 0.00 0.00 0.00 49 1003.6
20240625005121 89 10 0.0 0.0 0.00 0.00 0.00 47 1003.8
20240625004620 89 11 0.0 0.0 0.00 0.00 0.00 43 1003.9
20240625004120 90 11 0.0 0.0 0.00 0.00 0.00 42 1003.3
20240625003618 90 11 0.0 0.0 0.00 0.00 0.00 42 1003.6
20240625003118 91 11 0.0 0.0 0.00 0.00 0.00 42 1003.4
20240625002614 91 11 0.0 1.0 0.00 0.00 0.00 43 1003.5
20240625002113 91 11 0.0 1.0 0.00 0.00 0.00 43 1003.4
20240625001611 92 11 0.0 2.0 0.00 0.00 0.00 43 1003.5
20240625001109 92 11 1.0 2.0 0.00 0.00 0.00 44 1003.4
20240625000608 91 5 0.0 1.0 0.00 0.00 0.00 50 1003.2
20240625000107 92 2 1.0 1.0 0.00 0.00 0.00 55 1003.0
20240624235605 91 2 1.0 2.0 0.00 0.00 0.00 51 1003.0
20240624235104 91 1 1.0 2.0 0.00 0.00 0.00 55 1003.0
20240624234603 92 3 1.0 2.0 0.00 0.00 0.00 52 1003.0
20240624234103 92 2 1.0 2.0 0.00 0.00 0.00 51 1002.9
20240624233600 92 0 2.0 2.0 0.00 0.00 0.00 50 1002.9
20240624233059 93 355 2.0 3.0 0.00 0.00 0.00 50 1002.8
20240624232557 93 322 3.0 5.0 0.00 0.00 0.00 50 1002.6
20240624232056 94 297 4.0 5.0 0.00 0.00 0.00 48 1002.5
20240624231555 94 349 2.0 3.0 0.00 0.00 0.00 46 1002.5
20240624231053 94 310 3.0 5.0 0.00 0.00 0.00 48 1002.6
20240624230552 95 356 3.0 3.0 0.00 0.00 0.00 43 1002.5
20240624230051 95 5 2.0 3.0 0.00 0.00 0.00 46 1002.5
20240624225551 95 1 2.0 3.0 0.00 0.00 0.00 45 1002.4
20240624225050 94 352 3.0 6.0 0.00 0.00 0.00 42 1002.2
20240624224549 94 281 4.0 7.0 0.00 0.00 0.00 46 1002.1
20240624224048 95 326 3.0 6.0 0.00 0.00 0.00 46 1002.2
20240624223547 95 295 4.0 9.0 0.00 0.00 0.00 42 1002.1
20240624223045 95 324 3.0 5.0 0.00 0.00 0.00 42 1002.1
20240624222544 95 281 3.0 7.0 0.00 0.00 0.00 43 1002.2
20240624222042 94 294 4.0 7.0 0.00 0.00 0.00 43 1002.2
20240624221540 95 298 5.0 6.0 0.00 0.00 0.00 42 1002.2
20240624221038 95 356 2.0 2.0 0.00 0.00 0.00 43 1002.2
20240624220537 95 303 4.0 7.0 0.00 0.00 0.00 46 1002.0
20240624220036 95 356 3.0 3.0 0.00 0.00 0.00 45 1002.1
20240624215533 95 335 3.0 3.0 0.00 0.00 0.00 44 1002.1
20240624215032 94 346 2.0 6.0 0.00 0.00 0.00 45 1002.0
20240624214530 95 289 5.0 6.0 0.00 0.00 0.00 45 1002.2
20240624214030 95 271 7.0 9.0 0.00 0.00 0.00 44 1002.2
20240624213530 94 338 3.0 9.0 0.00 0.00 0.00 45 1002.3
20240624213030 95 325 4.0 6.0 0.00 0.00 0.00 44 1002.2
20240624212529 94 338 2.0 5.0 0.00 0.00 0.00 47 1002.2
20240624212028 94 306 4.0 8.0 0.00 0.00 0.00 49 1002.1
20240624211527 95 288 6.0 7.0 0.00 0.00 0.00 49 1002.3
20240624211026 95 22 1.0 5.0 0.00 0.00 0.00 46 1002.2
20240624210526 95 295 5.0 7.0 0.00 0.00 0.00 48 1002.2
20240624210026 95 282 4.0 6.0 0.00 0.00 0.00 45 1002.4
20240624205520 96 279 7.0 10.0 0.00 0.00 0.00 48 1002.5
20240624205019 98 0 1.0 3.0 0.00 0.00 0.00 46 1002.5
20240624204518 96 0 0.0 2.0 0.00 0.00 0.00 45 1002.3
20240624204016 96 25 1.0 2.0 0.00 0.00 0.00 44 1002.6
20240624203516 95 300 3.0 5.0 0.00 0.00 0.00 45 1002.4
20240624203014 94 337 3.0 5.0 0.00 0.00 0.00 45 1002.4
20240624202512 94 298 4.0 7.0 0.00 0.00 0.00 50 1002.5
20240624202011 94 278 5.0 7.0 0.00 0.00 0.00 46 1002.4
20240624201509 94 292 4.0 10.0 0.00 0.00 0.00 47 1002.7
20240624201009 94 285 9.0 11.0 0.00 0.00 0.00 47 1002.8
20240624200508 93 305 3.0 5.0 0.00 0.00 0.00 46 1002.9
20240624200007 93 272 5.0 7.0 0.00 0.00 0.00 46 1002.8
20240624195505 94 271 6.0 10.0 0.00 0.00 0.00 44 1002.8
20240624195002 94 269 6.0 7.0 0.00 0.00 0.00 45 1002.7
20240624194457 95 300 3.0 5.0 0.00 0.00 0.00 43 1003.1
20240624193956 94 343 2.0 7.0 0.00 0.00 0.00 46 1003.0
20240624193455 95 314 3.0 3.0 0.00 0.00 0.00 45 1003.0
20240624192955 94 349 2.0 5.0 0.00 0.00 0.00 45 1003.2
20240624192454 94 271 7.0 8.0 0.00 0.00 0.00 47 1003.2
20240624191953 94 314 4.0 10.0 0.00 0.00 0.00 45 1003.0
20240624191453 94 272 5.0 11.0 0.00 0.00 0.00 48 1003.4
20240624190952 93 300 2.0 5.0 0.00 0.00 0.00 47 1003.3
20240624190449 93 294 5.0 7.0 0.00 0.00 0.00 48 1003.4
20240624185949 93 281 5.0 9.0 0.00 0.00 0.00 49 1003.4
20240624185444 92 304 4.0 6.0 0.00 0.00 0.00 49 1003.4
20240624184942 93 292 5.0 7.0 0.00 0.00 0.00 48 1003.8
20240624184441 93 270 9.0 16.0 0.00 0.00 0.00 49 1003.7
20240624183940 93 353 2.0 6.0 0.00 0.00 0.00 50 1003.6
20240624183438 93 307 3.0 6.0 0.00 0.00 0.00 48 1003.6
20240624182938 92 275 6.0 7.0 0.00 0.00 0.00 49 1003.9
20240624182436 93 279 7.0 8.0 0.00 0.00 0.00 49 1003.6
20240624181935 93 326 4.0 9.0 0.00 0.00 0.00 50 1003.8
20240624181433 93 8 4.0 6.0 0.00 0.00 0.00 49 1004.0
20240624180933 93 300 6.0 14.0 0.00 0.00 0.00 52 1003.9
20240624180430 92 289 5.0 7.0 0.00 0.00 0.00 51 1004.2
20240624175930 93 278 6.0 7.0 0.00 0.00 0.00 50 1004.1
20240624175428 93 277 5.0 7.0 0.00 0.00 0.00 46 1004.3
20240624174926 92 279 5.0 6.0 0.00 0.00 0.00 49 1004.4
20240624174425 92 275 6.0 7.0 0.00 0.00 0.00 50 1004.2
20240624173925 92 336 3.0 3.0 0.00 0.00 0.00 47 1004.3
20240624173424 92 278 6.0 7.0 0.00 0.00 0.00 46 1004.1
20240624172922 92 342 2.0 7.0 0.00 0.00 0.00 52 1004.3
20240624172422 93 4 2.0 3.0 0.00 0.00 0.00 48 1004.3
20240624171920 92 354 2.0 3.0 0.00 0.00 0.00 49 1004.4
20240624171417 93 340 3.0 5.0 0.00 0.00 0.00 48 1004.5
20240624170916 92 330 3.0 5.0 0.00 0.00 0.00 50 1004.6
20240624170414 93 9 1.0 3.0 0.00 0.00 0.00 47 1004.5
20240624165913 91 327 3.0 7.0 0.00 0.00 0.00 51 1004.7
20240624165413 91 282 6.0 11.0 0.00 0.00 0.00 50 1004.6
20240624164911 92 349 2.0 2.0 0.00 0.00 0.00 49 1004.7
20240624164410 91 326 0.0 3.0 0.00 0.00 0.00 50 1004.8
20240624163908 91 282 4.0 5.0 0.00 0.00 0.00 49 1004.7
20240624163407 91 24 3.0 5.0 0.00 0.00 0.00 49 1005.0
20240624162905 90 348 2.0 3.0 0.00 0.00 0.00 51 1004.9
20240624162402 90 352 2.0 5.0 0.00 0.00 0.00 51 1004.6
20240624161901 89 284 5.0 5.0 0.00 0.00 0.00 53 1004.8
20240624161400 89 297 4.0 7.0 0.00 0.00 0.00 56 1004.9
20240624160900 90 303 4.0 6.0 0.00 0.00 0.00 57 1004.9
20240624160359 89 293 5.0 6.0 0.00 0.00 0.00 59 1004.8
20240624155858 88 346 2.0 3.0 0.00 0.00 0.00 57 1004.9
20240624155357 89 300 1.0 5.0 0.00 0.00 0.00 56 1005.0
20240624154856 89 299 4.0 5.0 0.00 0.00 0.00 58 1004.9
20240624154355 88 313 3.0 7.0 0.00 0.00 0.00 61 1004.8
20240624153854 88 314 3.0 8.0 0.00 0.00 0.00 64 1005.0
20240624153353 88 357 2.0 2.0 0.00 0.00 0.00 59 1005.0
20240624152852 88 305 3.0 6.0 0.00 0.00 0.00 61 1005.1
20240624152352 88 359 3.0 3.0 0.00 0.00 0.00 57 1005.0
20240624151849 88 346 2.0 3.0 0.00 0.00 0.00 58 1005.0
20240624151347 87 271 9.0 9.0 0.00 0.00 0.00 60 1004.8
20240624150847 87 268 11.0 11.0 0.00 0.00 0.00 58 1004.8
20240624150345 87 279 7.0 8.0 0.00 0.00 0.00 60 1004.9
20240624145843 87 275 5.0 7.0 0.00 0.00 0.00 61 1004.9
20240624145338 87 301 4.0 6.0 0.00 0.00 0.00 63 1005.0
20240624144837 86 288 7.0 9.0 0.00 0.00 0.00 62 1005.0
20240624144335 86 282 5.0 7.0 0.00 0.00 0.00 61 1004.7
20240624143835 86 279 5.0 6.0 0.00 0.00 0.00 61 1004.9
20240624143333 85 277 6.0 8.0 0.00 0.00 0.00 62 1004.7
20240624142832 85 264 6.0 7.0 0.00 0.00 0.00 61 1004.5
20240624142328 85 294 5.0 6.0 0.00 0.00 0.00 61 1004.5
20240624141826 85 11 2.0 3.0 0.00 0.00 0.00 62 1004.6
20240624141325 85 327 3.0 3.0 0.00 0.00 0.00 65 1004.5
20240624140825 84 273 5.0 7.0 0.00 0.00 0.00 64 1004.6
20240624140323 84 299 5.0 8.0 0.00 0.00 0.00 64 1004.5
20240624135822 84 258 5.0 6.0 0.00 0.00 0.00 67 1004.5
20240624135320 84 325 2.0 5.0 0.00 0.00 0.00 64 1004.6
20240624134819 83 295 6.0 8.0 0.00 0.00 0.00 65 1004.5
20240624134318 83 291 5.0 7.0 0.00 0.00 0.00 65 1004.5
20240624133818 83 277 6.0 7.0 0.00 0.00 0.00 67 1004.6
20240624133317 83 298 5.0 8.0 0.00 0.00 0.00 65 1004.5
20240624132816 83 268 5.0 7.0 0.00 0.00 0.00 68 1004.7
20240624132311 83 277 4.0 7.0 0.00 0.00 0.00 65 1004.5
20240624131810 83 293 7.0 8.0 0.00 0.00 0.00 64 1004.3
20240624131308 83 336 5.0 7.0 0.00 0.00 0.00 66 1004.3
20240624130807 82 304 5.0 9.0 0.00 0.00 0.00 65 1004.3
20240624130305 82 294 7.0 7.0 0.00 0.00 0.00 68 1004.4
20240624125805 82 302 6.0 7.0 0.00 0.00 0.00 68 1004.5
20240624125306 82 277 6.0 7.0 0.00 0.00 0.00 69 1004.3
20240624124759 82 271 6.0 7.0 0.00 0.00 0.00 68 1004.4
20240624124259 81 290 5.0 6.0 0.00 0.00 0.00 69 1004.4
20240624123757 81 273 4.0 5.0 0.00 0.00 0.00 70 1004.1
20240624123253 80 277 4.0 6.0 0.00 0.00 0.00 70 1004.3
20240624122752 80 303 4.0 5.0 0.00 0.00 0.00 70 1004.3
20240624122250 80 286 5.0 7.0 0.00 0.00 0.00 69 1004.4
20240624121749 80 338 3.0 7.0 0.00 0.00 0.00 70 1004.5
20240624121247 80 282 4.0 7.0 0.00 0.00 0.00 71 1004.5
20240624120747 80 298 3.0 5.0 0.00 0.00 0.00 72 1004.1
20240624120247 79 301 3.0 6.0 0.00 0.00 0.00 71 1004.2
20240624115746 79 316 3.0 5.0 0.00 0.00 0.00 73 1004.1
20240624115245 79 317 3.0 5.0 0.00 0.00 0.00 72 1004.2
20240624114743 78 299 3.0 6.0 0.00 0.00 0.00 74 1004.2
20240624114242 78 270 4.0 5.0 0.00 0.00 0.00 74 1004.0
20240624113742 78 275 5.0 7.0 0.00 0.00 0.00 75 1004.2
20240624113241 78 304 4.0 6.0 0.00 0.00 0.00 75 1003.9
20240624112740 78 295 3.0 3.0 0.00 0.00 0.00 76 1003.8
20240624112239 78 253 3.0 5.0 0.00 0.00 0.00 75 1003.8
20240624111737 78 265 3.0 5.0 0.00 0.00 0.00 75 1003.7
20240624111236 78 305 3.0 3.0 0.00 0.00 0.00 74 1003.8
20240624110735 78 310 4.0 6.0 0.00 0.00 0.00 75 1003.8
20240624110234 78 302 4.0 6.0 0.00 0.00 0.00 77 1003.8
20240624105732 78 289 5.0 7.0 0.00 0.00 0.00 78 1003.8
20240624105230 78 291 3.0 3.0 0.00 0.00 0.00 78 1003.7
20240624104729 77 312 3.0 3.0 0.00 0.00 0.00 78 1003.7
20240624104229 77 310 4.0 5.0 0.00 0.00 0.00 78 1003.8
20240624103728 77 316 3.0 3.0 0.00 0.00 0.00 77 1003.4
20240624103226 77 344 3.0 3.0 0.00 0.00 0.00 77 1003.7
20240624102725 77 1 2.0 3.0 0.00 0.00 0.00 79 1003.7
20240624102223 77 331 2.0 2.0 0.00 0.00 0.00 79 1003.6
20240624101723 77 350 2.0 3.0 0.00 0.00 0.00 80 1003.7
20240624101220 77 13 1.0 2.0 0.00 0.00 0.00 80 1003.3